This is the latest recevied weather packets stored in our database for station/object WB3EGK. If no packets are shown the sender has not sent any weather packets the latest 10 day(s).
| Time | Temp. | Humidity | Pressure | Rain* | Wind** | Luminosity | Snow |
|---|---|---|---|---|---|---|---|
| 1777656176 | 5° C | 1% | 1009.5 hPa | 3.05 mm | - | 137 W/m² | - |
| 1777655872 | 5° C | 1% | 1009.4 hPa | 3.05 mm | - | 115 W/m² | - |
| 1777655569 | 5° C | 1% | 1009.5 hPa | 3.05 mm | - | 119 W/m² | - |
| 1777655266 | 5° C | 1% | 1009.5 hPa | 3.05 mm | - | 135 W/m² | - |
| 1777654963 | 5° C | 1% | 1009.7 hPa | 3.05 mm | - | 129 W/m² | - |
| 1777654660 | 5° C | 1% | 1009.7 hPa | 3.05 mm | - | 125 W/m² | - |
| 1777654358 | 5° C | 1% | 1009.7 hPa | 1.27 mm | - | 137 W/m² | - |
| 1777654056 | 5° C | 1% | 1009.7 hPa | 1.78 mm | - | 111 W/m² | - |
| 1777653753 | 5° C | 1% | 1009.8 hPa | 3.05 mm | - | 118 W/m² | - |
| 1777653448 | 5° C | 1% | 1009.7 hPa | 1.27 mm | - | 69 W/m² | - |
| 1777653146 | 5.56° C | 1% | 1009.6 hPa | 1.78 mm | - | 38 W/m² | - |
| 1777652842 | 5.56° C | 1% | 1009.7 hPa | 3.56 mm | - | 62 W/m² | - |
| 1777652538 | 5.56° C | 1% | 1009.6 hPa | 1.78 mm | - | 73 W/m² | - |
| 1777652236 | 5.56° C | 1% | 1009.5 hPa | 0 mm | - | 124 W/m² | - |
| 1777651933 | 5.56° C | 1% | 1009.6 hPa | 0 mm | - | 94 W/m² | - |
| 1777651629 | 5.56° C | 1% | 1009.4 hPa | 0 mm | - | 88 W/m² | - |
| 1777651327 | 5.56° C | 1% | 1009.7 hPa | 0 mm | - | 78 W/m² | - |
| 1777651023 | 5.56° C | 1% | 1009.7 hPa | 0 mm | - | 103 W/m² | - |
| 1777650721 | 5.56° C | 1% | 1009.8 hPa | 0 mm | - | 117 W/m² | - |
| 1777650418 | 5° C | 1% | 1009.7 hPa | 0 mm | - | 127 W/m² | - |
| 1777650114 | 5° C | 1% | 1009.8 hPa | 0 mm | - | 108 W/m² | - |
| 1777649812 | 5° C | 1% | 1009.7 hPa | 0 mm | - | 98 W/m² | - |
| 1777649509 | 5° C | 1% | 1009.7 hPa | 0 mm | - | 81 W/m² | - |
| 1777649205 | 5° C | 1% | 1009.6 hPa | 0 mm | - | 115 W/m² | - |
| 1777648902 | 5° C | 1% | 1010 hPa | 1.27 mm | - | 100 W/m² | - |
* Rain latest hour (hover to see other rain measurements)
** Current wind speed in m/s (hover to see current wind gust speed)